Location: Suzhou
(31.3110°N, 120.6180°E)
Time: 09:31:41
(UTC+08:00)

FO-29 - Visible Passes

Search period start: 19 April 2026 00:00
Search period end: 29 April 2026 00:00
Orbit: 801 x 1320 km, 98.5° (Epoch: 18 April)

Date Brightness Start Highest point End Pass type
(mag) Time Alt. Az. Time Alt. Az. Time Alt. Az.
19 Apr 9.8 19:38:44 10° NNE 19:45:41 54° E 19:51:49 10° S visible
19 Apr 11.9 21:24:49 10° NNW 21:30:02 22° WNW 21:34:52 10° WSW visible
20 Apr 11.0 18:45:29 10° NE 18:49:56 18° E 18:54:03 10° SE visible
20 Apr 10.2 20:28:30 10° N 20:35:29 60° WNW 20:41:39 10° SSW visible
21 Apr 9.8 19:33:33 10° NNE 19:40:18 49° E 19:46:15 10° S visible
21 Apr 11.8 21:19:25 10° NNW 21:24:45 24° WNW 21:29:39 10° WSW visible
22 Apr 10.0 20:23:14 10° N 20:30:09 65° WNW 20:36:14 10° SSW visible
23 Apr 9.9 19:28:23 10° NNE 19:34:54 44° E 19:40:39 10° S visible
23 Apr 11.7 21:14:03 10° NNW 21:19:28 25° WNW 21:24:24 10° WSW visible
24 Apr 9.9 20:17:58 10° N 20:24:48 70° WNW 20:30:48 10° SSW visible
25 Apr 10.0 19:23:13 10° NNE 19:29:29 40° E 19:35:02 10° SSE visible
25 Apr 11.5 21:08:40 10° NNW 21:14:09 27° WNW 21:19:08 10° WSW visible
26 Apr 9.7 20:12:41 10° N 20:19:27 76° WNW 20:25:21 10° SSW visible
27 Apr 10.1 19:18:04 10° NNE 19:24:04 36° E 19:29:24 10° SSE visible
27 Apr 11.4 21:03:18 10° N 21:08:50 28° WNW 21:13:51 10° WSW visible
28 Apr 9.6 20:07:25 10° N 20:14:04 82° WNW 20:19:52 10° SSW visible
